Flag for U.S.A. Weather past 2 weeks in Cumberland, Maryland, U.S.A.

Now
67 °F

Light rain. Fog.


Feels Like: 67 °F
Forecast: 65 / 78 °F
Wind: No wind

Location: Eastern West Virginia Regional Airport

Current Time: Jul 4, 2015 at 5:12:54 AM

Latest Report: Jul 4, 2015 at 4:53 AM


Visibility: 5 mi

Pressure: 29.88 "Hg

Humidity: 90%

Dew point: 64 °F

Location of CumberlandLocation

Historic Weather in Cumberland — Graph

°F

Cumberland temperature yesterday

Maximum temperature yesterday: 77 °F (at 3:53 PM)
Minimum temperature yesterday: 63 °F (at 3:53 AM)
Average temperature yesterday: 69 °F

Past Weeks' High & Low Weather Summary

 TemperatureHumidityPressure
High91 °F (Jun 23, 4:53 PM)97% (Jul 3, 1:53 AM)30.11 "Hg (Jul 3, 1:53 AM)
Low57 °F (Jun 29, 2:53 AM)33% (Jun 24, 4:53 PM)29.69 "Hg (Jun 28, 3:53 AM)
Average73 °F73%29.93 "Hg
* Reported Jun 19 3:53 AM — Jul 4 3:53 AM, Cumberland, Weather by CustomWeather, © 2015

Note: Actual official high and low records may vary slightly from our data, if they occured in-between our weather recording intervals... More about our weather records

Advertising

Cumberland weather history for previous 24 hours

 ConditionsComfort  
Time TempWeatherWind HumidityBarometerVisibility
3:53 AM
Sat, Jul 4
67 °FFog.No wind90%29.89 "Hg6 mi
2:53 AM67 °FFog.3 mph93%29.90 "Hg4 mi
1:53 AM68 °FFog.No wind90%29.91 "Hg4 mi
12:53 AM68 °FFog.No wind93%29.92 "Hg3 mi
11:53 PM
Fri, Jul 3
68 °FLight rain. Fog.6 mph90%29.93 "Hg4 mi
10:53 PM70 °FOvercast.No wind84%29.93 "Hg6 mi
9:53 PM70 °FFog.No wind87%29.93 "Hg6 mi
8:53 PM70 °FOvercast.3 mph87%29.92 "Hg7 mi
7:53 PM71 °FMostly cloudy.No wind81%29.93 "Hg6 mi
6:53 PM73 °FCloudy.7 mph74%29.93 "Hg7 mi
5:53 PM75 °FOvercast.7 mph64%29.93 "Hg8 mi
4:53 PM77 °FPassing clouds.5 mph62%29.94 "Hg9 mi
3:53 PM77 °FScattered clouds.9 mph60%29.95 "Hg8 mi
2:53 PM76 °FPartly sunny.10 mph64%29.96 "Hg8 mi
1:53 PM75 °FMore clouds than sun.5 mph69%29.97 "Hg8 mi
12:53 PM75 °FScattered clouds.3 mph71%29.98 "Hg7 mi
11:53 AM73 °FBroken clouds.No wind79%30.00 "Hg6 mi
10:53 AM69 °FLow clouds.5 mph84%30.00 "Hg4 mi
9:53 AM68 °FPartly sunny.7 mph84%29.99 "Hg5 mi
8:53 AM67 °FLow clouds.5 mph85%29.99 "Hg5 mi
8:02 AM64 °FFog.No wind97%30.00 "Hg1 mi
7:53 AM64 °FFog.5 mph97%29.98 "Hg0 mi
6:53 AM64 °FFog.No wind94%29.96 "Hg0 mi
5:53 AM63 °FFog.3 mph97%29.95 "Hg0 mi
Weather by CustomWeather, © 2015

See weather overviewHow to use our weather pages